www.pogodaiklimat.ru

Погода и климат >> Архив погоды >> Россия >> Ленинградская область >> Сосновый Бор


ПОГОДА в Сосновом Бору

  • Прогноз погоды в Сосновом Бору
  • Монитор погоды в Сосновом Бору
  • Климат города

АРХИВ ПОГОДЫ в Сосновом Бору

Время (UTC), дата Ветер
(напр.,м/с)
 
Видим.   Явления Облачность Т
(С)
Тd
(С)
f
(%)
Тe
(С)
Тes
(С)
Комфортность P
(гПа)
Po
(гПа)
Тmin
(С)
Tmax
(С)
R
(мм)
R24
(мм)
S
(см)
09 8.11 В 3 н/о 10/10
[St]
+5.2 +4.0 92 +2 +2 1024.2 1021.6
12 8.11 ЮВ 3 н/о 10/10
[St]
+4.8 +3.5 91 +1 +1 1024.2 1021.6
15 8.11 В 2 н/о 10/10
[St]
+4.9 +4.0 94 +2 +2 1024.2 1021.6
18 8.11 ЮВ 2 н/о 10/10
[St]
+4.6 +3.1 90 +2 +2 1024.3 1021.7 +5.3
21 8.11 В 2 н/о 10/10
[St]
+4.4 +2.6 88 +2 +2 1022.1
00 9.11 В 1 н/о 10/10
[St]
+4.1 +2.6 90 +3 +3 1021.8
03 9.11 В 1 н/о 10/10
[St]
+4.0 +2.7 91 +2 +2 1021.6 +4.0
06 9.11 В 2 н/о 10/9
[St Ci fib]
+3.8 +3.0 95 +1 +1 1021.5 +3.8
09 9.11 В 2 н/о 10/10
[Sc]
+4.6 +3.5 93 +2 +2 1021.9
12 9.11 В 2 н/о слабая морось 10/10
[St]
+4.4 +3.5 94 +2 +2 1021.8
15 9.11 В 2 н/о слабая морось {дождь} 10/10
[St]
+3.9 +3.5 97 +1 +1 1021.8
18 9.11 В 2 н/о слабая морось 10/10
[St]
+3.5 +2.8 95 0 0 1021.5 +4.8 0.0
21 9.11 В 2 н/о {морось} 10/10
[St]
+3.4 +2.2 92 0 0 1021.8
00 10.11 В 2 н/о {морось} 10/10
[St]
+3.2 +2.0 92 0 0 1021.6
03 10.11 В 3 н/о 10/10
[St]
+3.1 +2.1 93 -1 -1 1021.4 +2.9
06 10.11 В 3 н/о в посл. час морось 10/10
[St]
+3.0 +2.3 95 -1 -1 1024.2 1021.6 +2.9 0.0
09 10.11 В 3 н/о в посл. час морось 10/10
[St]
+3.2 +1.7 90 -1 -1 1024.6 1022.1
12 10.11 ЮВ 4 н/о {морось} 10/10
[St]
+3.4 +1.8 89 -1 -1 1025.3 1022.7
18 10.11 ЮВ 4 н/о 10/10
[St]
+3.4 +1.5 87 -1 -1 1027.0 1024.4 +3.6 0.1
21 10.11 ЮВ 5
{10}
н/о 10/10
[St]
+3.1 +1.1 87 -2 -2 1028.3 1025.7
00 11.11 ЮВ 5 н/о 10/10
[St]
+3.3 +1.2 86 -2 -2 1029.1 1026.5
03 11.11 ЮВ 5 н/о 10/10
[St]
+3.3 +1.2 86 -2 -2 1029.8 1027.2 +3.0
06 11.11 штиль 0 50 км ?/? +3.7 +0.4 79 +3 +3 1030.7 1028.1 +2.8
09 11.11 Ю 4
{11}
н/о 10/10
[St]
+3.9 +0.2 77 -0 -0 1031.0 1028.4
12 11.11 ЮВ 4
{11}
н/о {ливн. осадки} 10/10
[St]
+3.6 0.0 77 -1 -1 1031.1 1028.5
15 11.11 ЮВ 4
{11}
н/о 10/10
[St]
+3.9 +0.2 77 -0 -0 1031.1 1028.5
18 11.11 ЮВ 6-10
{12}
н/о 10/10
[St]
+4.0 0.0 75 -1 -1 1030.4 1027.8 +4.2 0.0
21 11.11 ЮВ 4
{12}
н/о 10/10
[St]
+4.1 +0.6 78 -0 -0 1030.5 1027.9
00 12.11 Ю 4
{11}
н/о 10/10
[St]
+3.9 +0.4 78 -0 -0 1030.5 1027.9
03 12.11 Ю 6 н/о 10/10
[St]
+3.1 -0.4 78 -3 -3 1030.2 1027.6 +3.1
06 12.11 Ю 4
{10}
н/о 10/10
[Sc]
+2.1 -1.0 80 -3 -3 1030.1 1027.5 +2.1
09 12.11 Ю 5 н/о 10/10
[St]
+2.1 -1.4 78 -3 -3 1029.6 1027.0
15 12.11 Ю 5
{10}
н/о 10/10
[St]
+2.2 -0.7 81 -3 -3 1027.5 1024.9
21 12.11 Ю 5
{11}
н/о в посл. час зёрна {снег, морось} 10/10
[St]
+1.5 +0.5 93 -4 -4 1025.4 1022.8
00 13.11 Ю 5
{11}
н/о {снег, морось} 10/10
[St]
+1.9 +1.0 94 -4 -4 1023.8 1021.2
03 13.11 Ю 6-10
{10}
н/о слабый дождь 10/10
[Frnb Ns]
+2.4 +1.4 93 -4 -4 1021.1 1018.5 +1.4
06 13.11 Ю 4
{11}
н/о слабый дождь 10/10
[Frnb Ns]
+2.2 +1.2 93 -3 -3 1018.2 1015.6 +1.4 5
09 13.11 Ю 6-10
{11}
н/о дождь 10/10
[Frnb Ns]
+2.7 +2.0 95 -3 -3 1016.5 1013.9
12 13.11 Ю 6-10
{14}
н/о дождь 10/10
[Frnb Ns]
+3.6 +2.9 95 -2 -2 1014.8 1012.2
15 13.11 Ю 6-10
{12}
н/о слабая морось {дождь} 10/10
[St]
+4.3 +3.9 97 -1 -1 1014.4 1011.8
18 13.11 Ю 5
{10}
н/о {дождь, морось} 10/10
[St]
+5.2 +4.9 98 0 0 1014.3 1011.8 +5.3 7
21 13.11 ЮЗ 3
{10}
н/о в посл. час морось 10/10
[St]
+5.8 +5.5 98 +2 +2 1014.9 1012.4
00 14.11 ЮЗ 1 н/о {морось} 10/10
[St]
+5.9 +5.5 97 +5 +5 1015.1 1012.6
03 14.11 Ю 2 н/о 10/10
[St]
+5.6 +5.3 98 +3 +3 1015.3 1012.8 +4.3
06 14.11 Ю 2 н/о 10/10
[St]
+5.5 +5.4 99 +3 +3 1016.5 1014.0 +4.3 0.4
12 14.11 штиль 0 н/о {ливн. осадки} 9/9
[Sc Ac lent]
+7.6 +4.4 80 +7 +7 1019.2 1016.7

 

Местоположение метеостанции Сосновый Бор (Ленинградская область, Россия): широта 59.82 долгота 29.17 высота над уровнем моря 21 м.

В архиве по умолчанию представлена погода в Сосновом Бору за последнюю неделю. Архивные данные за месяц целиком и за предыдущие месяцы, начиная с января 2011 года, Вы можете получить, выбрав интересующий диапазон дат из раскрывающегося списка и нажав кнопку "Ввод!".


*Определитесь, кто Вы:
робот инопланетянин человек

Внимание! Время в таблицах - всемирное. Для получения местного времени необходимо прибавить поправку, которая в Сосновом Бору равна 3 ч.

Смотрите также архив погоды в соседних городах и на ближайших метеорологических станциях:

Погода в Шепелево (Ленинградская область, Россия) (7 км)
Погода в Ломоносове (город Санкт-Петербург, Россия) (36 км)
Погода в Кронштадте (город Санкт-Петербург, Россия) (37 км)
Погода в Озерках (Ленинградская область, Россия) (43 км)
Погода в Волосово (Ленинградская область, Россия) (47 км)
Погода в Лисьем Носу (город Санкт-Петербург, Россия) (50 км)
Погода в Рощино (Ленинградская область, Россия) (54 км)
Погода в Кингисеппе (Ленинградская область, Россия) (59 км)
Погода в Санкт-Петербурге (город Санкт-Петербург, Россия) (65 км)
Погода в Белогорке (Ленинградская область, Россия) (75 км)

Пояснения к столбцам:

Ветер - указаны скорость ветра в м/с - средняя за 10 мин, порывы в срок и между сроками (в фигурных скобках) и направление, откуда дует ветер: С - северный, СВ - северо-восточный, В - восточный, ЮВ - юго-восточный, Ю - южный, ЮЗ - юго-западный, З - западный, СЗ - северо-западный.
Видимость - горизонтальная дальность видимости в метрах или километрах. При видимости от 1 до 10 км при отсутствии осадков обычно наблюдается дымка, при ухудшении видимости до 1 км и менее - туман. В сухую погоду видимость может ухудшаться дымом, пылью или мглою.
Явления - указаны атмосферные явления, наблюдавшиеся в срок или в последний час перед сроком; фигурными скобками обозначены явления, наблюдавшиеся между сроками (за 1-3 часа до срока); квадратными скобками обозначены град или гололедные отложения с указанием их диаметра в мм.
Облачность - указаны через наклонную черту общая и нижняя облачность в баллах и высота нижней границы облаков в метрах; квадратными скобками обозначены формы облаков: Ci - перистые, Cs - перисто-слоистые, Cc - перисто-кучевые, Ac - высококучевые, As - высокослоистые, Sc - слоисто-кучевые, Ns - слоисто-дождевые, Cu - кучевые, Cb - кучево-дождевые. Подробнее классификацию облаков см. в Атласе облаков (PDF).
T - Температура воздуха - температура, измеренная на высоте 2 м над землей.
Td - Температура точки росы - температура, при понижении до которой содержащийся в воздухе водяной пар достигнет насыщения.
f - Относительная влажность воздуха - влажноcть воздуха, измеренная на высоте 2 м над землей.
Te - Эффективная температура - температура, которую ощущает одетый по сезону человек в тени. Характеристика душности погоды. При расчете учитывается влияние влажности воздуха и скорости ветра на теплоощущения человека.
Tes - Эффективная температура на солнце - температура, которую ощущает человек, с поправкой на солнечный нагрев. Характеристика знойности погоды. Зависит от высоты солнца над горизонтом, облачности и скорости ветра. Ночью, в пасмурную погоду, а также при ветре 12 м/с и более поправка равна нулю.
P - Атмосферное давление - приведенное к уровню моря атмосферное давление.
Po - Атмосферное давление - измеренное на уровне метеостанции атмосферное давление.
Tmin - Минимальная температура - минимум температуры воздуха на высоте 2 м над землей.
Tmax - Максимальная температура - максимум температуры воздуха на высоте 2 м над землей.
R - Количество осадков - Количество выпавших осадков за период времени, мм. При наведении курсора мыши на число - период времени, за который выпало указанное количество осадков.
R24 - Количество осадков - Количество выпавших осадков за 24 часа, мм.
S - Снежный покров - Высота снежного покрова, см. При наведении курсора мыши на число - состояние снежного покрова и степень покрытия местности в баллах.